Location: Lake Crest
(37.6062°N, 88.9176°W)
Time: 18:10:47
(UTC+00:00)

OAO 3 Copernicus - Pass Details

Date: 15 December 2019
Orbit: 695 x 705 km, 35.0° (Epoch: 28 January)

Event Time Altitude Azimuth Distance (km) Brightness Sun altitude
Rises 00:51:11 0° 264° (W) 3,077 9.0 -25.6°
Reaches altitude 10° 00:53:36 10° 262° (W) 2,161 7.9 -26.0°
Enters shadow 00:58:23 65° 199° (SSW) 768 4.5 -27.0°
